[[{"header":{"parameterUnit":"m.s-1","parameterCategory":1,"la1":30.2991,"la2":30.254,"lo1":-89.0895,"lo2":-89.0444,"dy":0.0017,"dx":0.0017,"nx":28,"ny":28,"refTime":"2025-12-23T09:00:00:Z","depth":0,"parameterNumber":2,"parameterNumberName":"U-component_of_WINDS"},"data":[0,0,0,0,0,0,0,0,0,0,0,0,0,0,0,0,0,0,0,0,0,0,0,0,0,0,0,0,0,0,0,0,0,0,0,0,0,0,0,0,0,0,0,0,0,0,0,0,0,0,0,0,0,0,0,0,0,0,0.0706,0.0707,0,0.0765,0.0766,0.0767,0.079,0.079,0.079,0.079,0.0853,0.0855,0.0856,0,0,0,0,0,0,0,0,0,0,0,0,0,0.0616,0.0617,0.0706,0.0707,0.0708,0.0765,0.0766,0.0767,0.0791,0.079,0.079,0.079,0.0852,0.0854,0.0857,0,0,0,0,0,0,0,0,0,0,0,0,0,0.0663,0.0618,0.0706,0.0726,0.0729,0.0765,0.0766,0.0767,0.0791,0.079,0.079,0.079,0.0852,0.0854,0.0857,0.0878,0,0,0.0865,0.0866,0,0,0,0,0,0,0,0,0.066,0.0666,0.0723,0.0725,0.0728,0.077,0.0757,0.0804,0.0791,0.0767,0.079,0.079,0.0826,0.0831,0.0842,0.0881,0.0884,0.0865,0.0867,0.0868,0.0869,0,0,0,0,0,0,0,0.0657,0.0664,0.073,0.0724,0.0727,0.0733,0.074,0.0766,0.0797,0.0769,0.0771,0.0778,0.0827,0.084,0.0844,0.0885,0.0865,0.0868,0.0869,0.0871,0.0943,0.0944,0,0,0,0,0,0,0.065,0.0661,0.0728,0.0732,0.0693,0.0735,0.0742,0.0757,0.0797,0.0803,0.0778,0.0778,0.0835,0.0841,0.0846,0.0873,0.0868,0.0871,0.0872,0.0943,0.0943,0.0944,0,0,0,0,0,0,0.0648,0.0656,0.0726,0.0697,0.0706,0.0737,0.0753,0.0758,0.0771,0.0803,0.0809,0.0785,0.0835,0.0842,0.087,0.0876,0.0872,0.0874,0.0943,0.0943,0.0944,0.0928,0,0,0,0,0,0,0.0646,0.0655,0.0663,0.0697,0.0708,0.0748,0.0754,0.076,0.0775,0.0777,0.0811,0.0817,0.0835,0.0865,0.0872,0.0879,0.0877,0.0942,0.0943,0.0943,0.0928,0.0928,0.0927,0,0,0,0,0,0.0642,0.0657,0.0663,0.0671,0.0718,0.0748,0.0754,0.0775,0.0775,0.0784,0.0805,0.0816,0.0874,0.0868,0.0876,0.0884,0.0942,0.0943,0.0943,0.0928,0.0928,0.0927,0,0,0,0,0,0,0.0624,0.0662,0.0669,0.0695,0.0718,0.0752,0.0763,0.0774,0.0797,0.0798,0.0823,0.0831,0.0856,0.0873,0.0866,0.0906,0.0909,0.0911,0.0894,0.0894,0.0894,0.089,0.0879,0,0,0,0,0,0.0623,0.0643,0.0675,0.0695,0.0706,0.0733,0.0746,0.076,0.0785,0.0795,0.0818,0.0842,0.0866,0.0881,0.0905,0.093,0.0938,0.094,0.0939,0.0939,0.0941,0.0955,0.0956,0.0946,0.0946,0.0946,0,0,0.0621,0.0644,0.0656,0.0692,0.0711,0.0732,0.0741,0.0763,0.0778,0.0799,0.0825,0.0843,0.0872,0.0898,0.0911,0.0913,0.0945,0.094,0.0939,0.0942,0.0956,0.0957,0.0958,0.0947,0.0946,0.0946,0,0,0.0629,0.0648,0.0666,0.0685,0.0714,0.0731,0.0735,0.0768,0.078,0.0807,0.0822,0.0842,0.0882,0.0902,0.0917,0.0931,0.0942,0.0938,0.0937,0.0951,0.0951,0.0952,0.0957,0.0958,0.094,0.094,0.094,0,0.0623,0.0654,0.0675,0.0696,0.0711,0.0729,0.0748,0.0766,0.0801,0.0811,0.0813,0.0864,0.0884,0.0915,0.0918,0.093,0.0936,0.0934,0.0949,0.095,0.0952,0.0956,0.0958,0.0939,0.0939,0.0939,0.0939,0,0.0646,0.0668,0.0679,0.0711,0.0728,0.0748,0.0772,0.0787,0.0798,0.0816,0.0843,0.0868,0.0897,0.0906,0.0918,0.0938,0.0939,0.0944,0.0947,0.0952,0.0956,0.0959,0.0938,0.0938,0.0938,0.0939,0,0,0.0644,0.0687,0.0691,0.0705,0.0738,0.0755,0.0776,0.0803,0.0815,0.0839,0.0857,0.089,0.0895,0.0913,0.0927,0.0939,0.0948,0.0944,0.0945,0.0944,0.0972,0.0967,0.0969,0.0955,0.0956,0.0956,0.0969,0,0.0656,0.0693,0.0711,0.074,0.076,0.0777,0.0795,0.0817,0.0834,0.0854,0.0872,0.0895,0.0901,0.0911,0.0924,0.0944,0.0954,0.0944,0.0973,0.0974,0.0965,0.0972,0.0967,0.0978,0.0972,0.0972,0.0972,0,0.0675,0.0697,0.0727,0.0757,0.0766,0.0782,0.0808,0.0827,0.0852,0.0863,0.0882,0.0896,0.0919,0.0919,0.0951,0.0943,0.0956,0.0968,0.0969,0.0973,0.0973,0.0976,0.0982,0.0984,0.0975,0.0975,0.0975,0,0.067,0.0708,0.0731,0.0743,0.0778,0.0788,0.0804,0.0829,0.0844,0.0867,0.0877,0.0902,0.0916,0.0936,0.0957,0.0956,0.0986,0.0989,0.0997,0.0996,0.1003,0.1002,0.1012,0.1011,0.1011,0.1011,0.1011,0,0.0681,0.0699,0.0729,0.0743,0.0764,0.0785,0.0805,0.0822,0.0844,0.0862,0.0879,0.0895,0.0921,0.0942,0.0958,0.0981,0.0988,0.0998,0.1002,0.0996,0.0995,0.1005,0.1005,0.1011,0.1011,0.1011,0.1011,0,0.0679,0.07,0.0726,0.0757,0.0765,0.0779,0.0806,0.082,0.0837,0.086,0.0866,0.0893,0.0917,0.094,0.0973,0.0984,0.1007,0.1013,0.0999,0.1001,0.1007,0.1006,0.1024,0.1027,0.1024,0.1024,0.1024,0,0.0685,0.0699,0.0731,0.0744,0.0758,0.0779,0.0794,0.0816,0.0831,0.086,0.0871,0.0896,0.0918,0.0956,0.0979,0.1004,0.101,0.1014,0.1014,0.1008,0.101,0.1009,0.101,0.1014,0.1014,0.1014,0.1014,0,0.0693,0.0702,0.0723,0.0747,0.0764,0.0784,0.0805,0.0815,0.084,0.0857,0.0881,0.0898,0.093,0.0956,0.0983,0.0999,0.1011,0.1014,0.1017,0.1011,0.1003,0.1007,0.0998,0.1014,0.1014,0.1014,0.1014,0.1014,0.0695,0.0708,0.0732,0.0755,0.0772,0.0791,0.0806,0.0825,0.0845,0.0873,0.0885,0.091,0.0934,0.0972,0.0988,0.1008,0.1011,0.1015,0.1017,0.1017,0.1016,0.0999,0.1014,0.1014,0.1014,0.1014,0.1014,0,0.0704,0.072,0.074,0.0768,0.0786,0.0794,0.0818,0.0832,0.0853,0.0875,0.0895,0.0924,0.0948,0.0972,0.0997,0.1009,0.1015,0.1015,0.1014,0.1018,0.1013,0.1007,0.101,0.101,0.101,0.101,0.101,0.101,0.071,0.0733,0.0745,0.0776,0.0793,0.0816,0.0829,0.0847,0.0864,0.0894,0.0914,0.0929,0.0952,0.0979,0.1002,0.1008,0.1017,0.1016,0.1024,0.1018,0.1018,0.1019,0.1014,0.1017,0.1017,0.1027,0.1028,0.1028]},{"header":{"parameterUnit":"m.s-1","parameterCategory":1,"la1":30.2991,"la2":30.254,"lo1":-89.0895,"lo2":-89.0444,"dy":0.0017,"dx":0.0017,"nx":28,"ny":28,"refTime":"2025-12-23T09:00:00:Z","depth":0,"parameterNumber":3,"parameterNumberName":"V-component_of_WINDS"},"data":[0,0,0,0,0,0,0,0,0,0,0,0,0,0,0,0,0,0,0,0,0,0,0,0,0,0,0,0,0,0,0,0,0,0,0,0,0,0,0,0,0,0,0,0,0,0,0,0,0,0,0,0,0,0,0,0,0,0,0.9151,0.915,0,0.9042,0.904,0.9039,0.9013,0.9014,0.9015,0.9016,0.8896,0.8892,0.8888,0,0,0,0,0,0,0,0,0,0,0,0,0,0.9333,0.933,0.9152,0.915,0.9149,0.9042,0.904,0.9039,0.9013,0.9014,0.9015,0.9016,0.8897,0.8893,0.8888,0,0,0,0,0,0,0,0,0,0,0,0,0,0.9241,0.9329,0.9152,0.9123,0.912,0.9042,0.904,0.9038,0.9013,0.9014,0.9015,0.9017,0.8899,0.8893,0.8887,0.8828,0,0,0.8869,0.8867,0,0,0,0,0,0,0,0,0.9247,0.9235,0.9129,0.9125,0.9121,0.9043,0.906,0.8967,0.9013,0.9053,0.9016,0.9017,0.8943,0.8934,0.891,0.8822,0.8817,0.8869,0.8865,0.8863,0.8861,0,0,0,0,0,0,0,0.9253,0.9239,0.9108,0.9127,0.9123,0.9114,0.9102,0.9042,0.8993,0.905,0.9048,0.9036,0.8941,0.8916,0.8907,0.8815,0.8869,0.8864,0.886,0.8858,0.8671,0.867,0,0,0,0,0,0,0.9265,0.9245,0.9111,0.9105,0.9188,0.911,0.9097,0.9066,0.8994,0.8984,0.9035,0.9035,0.8926,0.8914,0.8903,0.8827,0.8863,0.8857,0.8854,0.8673,0.8671,0.8669,0,0,0,0,0,0,0.9269,0.9254,0.9116,0.9174,0.9156,0.9105,0.9072,0.9064,0.9039,0.8982,0.8972,0.9019,0.8926,0.8911,0.8847,0.8823,0.8855,0.8849,0.8674,0.8672,0.867,0.8676,0,0,0,0,0,0,0.9275,0.9255,0.9234,0.9174,0.9153,0.9063,0.907,0.9061,0.9029,0.9028,0.8964,0.8955,0.8926,0.8856,0.8841,0.8815,0.8845,0.8676,0.8673,0.8671,0.8678,0.8675,0.8672,0,0,0,0,0,0.9281,0.9239,0.9233,0.9217,0.9125,0.9062,0.905,0.9019,0.9028,0.9004,0.8968,0.8957,0.8829,0.8849,0.8833,0.8805,0.8677,0.8674,0.8671,0.8679,0.8675,0.8672,0,0,0,0,0,0,0.9294,0.923,0.9223,0.916,0.9117,0.9058,0.9028,0.9016,0.8968,0.8969,0.8931,0.8917,0.8854,0.8823,0.8848,0.8743,0.8753,0.8746,0.8765,0.8761,0.8758,0.8765,0.884,0,0,0,0,0,0.929,0.9247,0.9192,0.9142,0.9121,0.9078,0.9049,0.903,0.8983,0.8964,0.8923,0.8875,0.8824,0.8791,0.8741,0.8674,0.8658,0.8647,0.8644,0.8641,0.8635,0.8596,0.8589,0.8659,0.8659,0.8659,0,0,0.928,0.924,0.9214,0.9143,0.9108,0.9061,0.9063,0.9013,0.8977,0.8955,0.8892,0.8861,0.8805,0.8739,0.8708,0.8711,0.8613,0.8637,0.8636,0.863,0.8592,0.8585,0.8579,0.8656,0.8657,0.8657,0,0,0.9239,0.9205,0.9159,0.9124,0.9071,0.9042,0.9032,0.8974,0.8953,0.889,0.8872,0.8828,0.8741,0.8702,0.867,0.8615,0.8602,0.8599,0.8582,0.8544,0.8539,0.8534,0.8512,0.8505,0.8594,0.8594,0.8594,0,0.9233,0.9164,0.9136,0.9088,0.9056,0.9037,0.8988,0.8955,0.8887,0.8864,0.887,0.876,0.8722,0.8645,0.8632,0.8608,0.8592,0.8605,0.8542,0.8537,0.8532,0.851,0.8502,0.8594,0.8594,0.8594,0.8594,0,0.9158,0.911,0.9079,0.9017,0.8982,0.8934,0.8896,0.8864,0.8848,0.8818,0.8753,0.8707,0.8646,0.8627,0.861,0.8548,0.8551,0.855,0.8559,0.8525,0.8504,0.8496,0.8594,0.8594,0.8594,0.8594,0,0,0.9119,0.9043,0.9032,0.9003,0.8943,0.8905,0.8855,0.8799,0.877,0.8725,0.868,0.8608,0.8606,0.8571,0.8549,0.8516,0.8473,0.8519,0.8517,0.851,0.8399,0.8399,0.839,0.8465,0.8464,0.8462,0.8403,0,0.9069,0.8982,0.8955,0.8881,0.8835,0.8817,0.8773,0.8731,0.8702,0.8658,0.8625,0.8574,0.8577,0.8555,0.8522,0.8485,0.845,0.849,0.842,0.8418,0.8433,0.8379,0.8379,0.8325,0.8395,0.8393,0.8392,0,0.8997,0.8953,0.8875,0.8821,0.88,0.8762,0.8707,0.8666,0.8617,0.8598,0.8559,0.8541,0.8486,0.85,0.8422,0.845,0.842,0.8398,0.8395,0.8385,0.8402,0.8366,0.8307,0.8298,0.838,0.8381,0.8382,0,0.8975,0.8895,0.8837,0.8813,0.8749,0.8722,0.8694,0.8646,0.8614,0.8565,0.8543,0.8489,0.8458,0.8415,0.8382,0.8396,0.8306,0.8318,0.8287,0.8287,0.8266,0.8268,0.82,0.8252,0.8252,0.8252,0.8252,0,0.8919,0.8872,0.8826,0.8791,0.8736,0.8706,0.8652,0.8622,0.858,0.8537,0.8517,0.8476,0.8436,0.8389,0.8362,0.83,0.8287,0.8268,0.8261,0.8269,0.8271,0.8247,0.8249,0.825,0.825,0.8251,0.8251,0,0.8884,0.8852,0.8788,0.8733,0.8718,0.868,0.8632,0.8596,0.8568,0.8513,0.8498,0.8452,0.8396,0.8359,0.8287,0.8269,0.8201,0.8196,0.8218,0.8214,0.8184,0.8187,0.8097,0.8082,0.8146,0.8145,0.8145,0,0.8849,0.8813,0.8755,0.8726,0.8698,0.8651,0.8618,0.8586,0.8553,0.8494,0.8464,0.8407,0.836,0.8271,0.8229,0.8173,0.8165,0.8138,0.8157,0.8165,0.8162,0.8164,0.8159,0.8134,0.8133,0.8133,0.8133,0,0.8791,0.8778,0.8733,0.8682,0.8644,0.8602,0.8559,0.8536,0.8496,0.8459,0.8403,0.8366,0.8294,0.8236,0.8177,0.8145,0.8131,0.8128,0.8117,0.8123,0.8136,0.8126,0.8207,0.8129,0.8129,0.813,0.813,0.813,0.8753,0.872,0.8674,0.8624,0.8589,0.855,0.8513,0.8481,0.8434,0.8374,0.8358,0.8298,0.8249,0.8168,0.8135,0.8087,0.8089,0.8075,0.807,0.8066,0.8065,0.8147,0.8076,0.8076,0.8076,0.8076,0.8076,0,0.8692,0.8663,0.8617,0.856,0.852,0.8514,0.8467,0.8433,0.8382,0.8338,0.8292,0.8227,0.8171,0.8127,0.8069,0.8038,0.803,0.8024,0.8024,0.8017,0.8067,0.8081,0.8031,0.8031,0.8031,0.8031,0.8031,0.8031,0.8656,0.8598,0.8579,0.8503,0.8472,0.8416,0.8389,0.8352,0.8317,0.8245,0.82,0.8173,0.8127,0.8066,0.8015,0.8003,0.7981,0.7976,0.7962,0.8009,0.8014,0.8018,0.8031,0.7972,0.7972,0.7915,0.7915,0.7914]}]]